[Date Prev][Date Next][Thread Prev][Thread Next] - [Date Index][Thread Index][Author Index]
2 Line ISS Keps 1-23
- Subject: [sarex] 2 Line ISS Keps 1-23
- From: "Dave Larsen PhD" <doc@xxxxxxxxxxx>
- Date: Wed, 23 Jan 2002 04:11:29 -0800
ISS
1 25544U 98067A 02023.14617757 .00064364 00000-0 83806-3 0 9918
2 25544 51.6410 62.0337 0006965 345.3890 115.1121 15.58106733181403
----
Via the sarex mailing list at AMSAT.ORG courtesy of AMSAT-NA.
To unsubscribe, send "unsubscribe sarex" to Majordomo@amsat.org
AMSAT Home